| time (UTC) | temp F | wind direction | speed MPH | gust MPH | rain 1hr in | rain 24hr in | rain mn in | humidity % | barometer mb |
| 20260502221535 | 45 | 300 | 0.0 | 0.0 | 0.00 | 0.07 | 0.00 | 65 | 1016.6 |
| 20260502220032 | 45 | 305 | 0.0 | 0.0 | 0.00 | 0.07 | 0.00 | 68 | 1016.5 |
| 20260502214531 | 44 | 14 | 0.0 | 0.0 | 0.00 | 0.07 | 0.00 | 69 | 1016.5 |
| 20260502213042 | 44 | 13 | 0.0 | 0.0 | 0.00 | 0.07 | 0.00 | 69 | 1016.4 |
| 20260502211534 | 44 | 13 | 0.0 | 0.0 | 0.00 | 0.07 | 0.00 | 68 | 1016.4 |
| 20260502210031 | 44 | 13 | 0.0 | 0.0 | 0.00 | 0.07 | 0.00 | 71 | 1016.4 |
| 20260502204529 | 44 | 13 | 0.0 | 0.0 | 0.00 | 0.07 | 0.00 | 71 | 1016.4 |
| 20260502203030 | 44 | 355 | 0.0 | 0.0 | 0.00 | 0.07 | 0.00 | 73 | 1016.4 |
| 20260502201536 | 44 | 71 | 0.0 | 0.0 | 0.00 | 0.07 | 0.00 | 72 | 1016.6 |
| 20260502200027 | 45 | 348 | 0.0 | 2.0 | 0.00 | 0.07 | 0.00 | 68 | 1016.6 |
| 20260502194525 | 45 | 57 | 0.0 | 0.0 | 0.00 | 0.07 | 0.00 | 68 | 1016.7 |
| 20260502193027 | 44 | 319 | 0.0 | 0.0 | 0.00 | 0.07 | 0.00 | 69 | 1016.9 |
| 20260502191528 | 43 | 337 | 0.0 | 0.0 | 0.00 | 0.07 | 0.00 | 71 | 1017.0 |
| 20260502190023 | 43 | 11 | 0.0 | 5.0 | 0.00 | 0.07 | 0.00 | 72 | 1017.1 |
| 20260502184523 | 44 | 90 | 0.0 | 1.0 | 0.00 | 0.07 | 0.00 | 73 | 1017.1 |
| 20260502183027 | 44 | 32 | 0.0 | 12.0 | 0.00 | 0.07 | 0.00 | 67 | 1017.1 |
| 20260502181523 | 45 | 37 | 0.0 | 2.0 | 0.00 | 0.07 | 0.00 | 61 | 1017.0 |
| 20260502163015 | 44 | 329 | 1.0 | 9.0 | 0.00 | 0.12 | 0.00 | 67 | 1017.5 |
| 20260502161512 | 44 | 313 | 0.0 | 1.0 | 0.00 | 0.12 | 0.00 | 65 | 1017.5 |
| 20260502151502 | 41 | 5 | 0.0 | 4.0 | 0.00 | 0.16 | 0.00 | 81 | 1017.5 |
| 20260502123041 | 37 | 313 | 0.0 | 1.0 | 0.00 | 0.32 | 0.00 | 86 | 1016.6 |
| 20260502121538 | 35 | 304 | 0.0 | 0.0 | 0.00 | 0.32 | 0.00 | 87 | 1016.5 |
| 20260502114533 | 33 | 311 | 0.0 | 0.0 | 0.00 | 0.33 | 0.00 | 88 | 1016.5 |
| 20260502113032 | 33 | 310 | 0.0 | 0.0 | 0.00 | 0.33 | 0.00 | 88 | 1016.5 |
| 20260502111526 | 33 | 298 | 0.0 | 0.0 | 0.00 | 0.33 | 0.00 | 88 | 1016.5 |
| 20260502110023 | 33 | 300 | 0.0 | 0.0 | 0.00 | 0.33 | 0.00 | 87 | 1016.3 |
| 20260502104526 | 33 | 295 | 0.0 | 0.0 | 0.00 | 0.33 | 0.00 | 87 | 1016.1 |
| 20260502103019 | 33 | 294 | 0.0 | 0.0 | 0.00 | 0.33 | 0.00 | 86 | 1016.1 |
| 20260502101519 | 33 | 294 | 0.0 | 0.0 | 0.00 | 0.33 | 0.00 | 86 | 1016.2 |
| 20260502091517 | 34 | 294 | 0.0 | 0.0 | 0.00 | 0.33 | 0.00 | 85 | 1016.1 |
| 20260502071501 | 36 | 291 | 0.0 | 0.0 | 0.00 | 0.33 | 0.00 | 86 | 1015.7 |
| 20260502070117 | 36 | 290 | 0.0 | 0.0 | 0.00 | 0.33 | 0.00 | 86 | 1015.8 |
| 20260502064601 | 36 | 290 | 0.0 | 0.0 | 0.00 | 0.33 | 0.00 | 86 | 1015.8 |
| 20260502063116 | 37 | 290 | 0.0 | 0.0 | 0.00 | 0.33 | 0.00 | 87 | 1015.8 |
| 20260502061554 | 37 | 290 | 0.0 | 0.0 | 0.00 | 0.33 | 0.00 | 87 | 1016.0 |
| 20260502060056 | 37 | 290 | 0.0 | 0.0 | 0.00 | 0.33 | 0.00 | 89 | 1016.1 |
| 20260502054601 | 38 | 263 | 0.0 | 0.0 | 0.00 | 0.33 | 0.00 | 91 | 1016.1 |
| 20260502053051 | 38 | 263 | 0.0 | 0.0 | 0.00 | 0.33 | 0.00 | 91 | 1016.0 |
| 20260502051548 | 39 | 263 | 0.0 | 0.0 | 0.00 | 0.33 | 0.00 | 92 | 1016.1 |
| 20260502050048 | 39 | 262 | 0.0 | 0.0 | 0.00 | 0.33 | 0.00 | 92 | 1016.0 |
| 20260502044543 | 40 | 262 | 0.0 | 0.0 | 0.00 | 0.33 | 0.00 | 91 | 1016.0 |
| 20260502043142 | 40 | 262 | 0.0 | 0.0 | 0.00 | 0.33 | 0.00 | 91 | 1016.0 |
| 20260502041604 | 40 | 263 | 0.0 | 0.0 | 0.00 | 0.33 | 0.00 | 91 | 1016.0 |
| 20260502040049 | 41 | 263 | 0.0 | 0.0 | 0.00 | 0.33 | 0.33 | 91 | 1016.0 |
| 20260502034539 | 41 | 263 | 0.0 | 0.0 | 0.00 | 0.33 | 0.33 | 92 | 1016.0 |
| 20260502033035 | 41 | 263 | 0.0 | 0.0 | 0.00 | 0.33 | 0.33 | 92 | 1016.1 |
| 20260502031535 | 41 | 262 | 0.0 | 0.0 | 0.00 | 0.33 | 0.33 | 92 | 1016.1 |
| 20260502030048 | 41 | 262 | 0.0 | 0.0 | 0.00 | 0.33 | 0.33 | 91 | 1016.0 |
| 20260502024531 | 41 | 263 | 0.0 | 0.0 | 0.00 | 0.33 | 0.33 | 90 | 1015.7 |
| 20260502023044 | 41 | 263 | 0.0 | 0.0 | 0.00 | 0.33 | 0.33 | 91 | 1015.6 |
| 20260502021528 | 42 | 263 | 0.0 | 0.0 | 0.00 | 0.33 | 0.33 | 91 | 1015.4 |
| 20260502020027 | 42 | 263 | 0.0 | 0.0 | 0.01 | 0.33 | 0.33 | 91 | 1015.3 |
| 20260502014530 | 42 | 263 | 0.0 | 0.0 | 0.01 | 0.33 | 0.33 | 91 | 1015.3 |
| 20260502013025 | 42 | 263 | 0.0 | 0.0 | 0.01 | 0.33 | 0.33 | 91 | 1015.1 |
| 20260502011523 | 42 | 251 | 0.0 | 0.0 | 0.01 | 0.33 | 0.33 | 91 | 1014.9 |
| 20260502010025 | 42 | 261 | 0.0 | 0.0 | 0.00 | 0.32 | 0.32 | 91 | 1015.0 |
| 20260502004521 | 43 | 261 | 0.0 | 0.0 | 0.00 | 0.32 | 0.32 | 91 | 1014.8 |
| 20260502003020 | 43 | 261 | 0.0 | 0.0 | 0.00 | 0.32 | 0.32 | 91 | 1014.9 |
| 20260502001518 | 43 | 261 | 0.0 | 0.0 | 0.01 | 0.32 | 0.32 | 90 | 1014.7 |
| 20260502000015 | 43 | 261 | 0.0 | 0.0 | 0.05 | 0.32 | 0.32 | 90 | 1014.3 |
| 20260501234516 | 43 | 261 | 0.0 | 0.0 | 0.06 | 0.32 | 0.32 | 89 | 1014.0 |
| 20260501233014 | 42 | 261 | 0.0 | 0.0 | 0.06 | 0.32 | 0.32 | 88 | 1014.0 |
| 20260501231514 | 43 | 300 | 0.0 | 8.0 | 0.05 | 0.31 | 0.31 | 86 | 1014.3 |
| 20260501230024 | 45 | 19 | 0.0 | 0.0 | 0.01 | 0.27 | 0.27 | 85 | 1014.1 |
| 20260501224511 | 46 | 11 | 0.0 | 1.0 | 0.00 | 0.26 | 0.26 | 80 | 1014.0 |
| 20260501223017 | 46 | 12 | 0.0 | 0.0 | 0.00 | 0.26 | 0.26 | 81 | 1014.0 |